Location: Praha
(50.0830°N, 14.4670°E)
Time: 10:59:18
(UTC+01:00)

ATV-4 - Visible Passes

Search period start: 25 March 2019 00:00
Search period end: 04 April 2019 01:00
Orbit: 308 x 318 km, 51.6° (Epoch: 02 November)

Date Brightness Start Highest point End Pass type
(mag) Time Alt. Az. Time Alt. Az. Time Alt. Az.
25 Mar 4.0 02:11:07 15° ENE 02:11:07 15° ENE 02:11:54 10° ENE visible
25 Mar 1.5 04:24:03 22° WNW 04:26:21 80° SSW 04:32:14 10° ESE visible
26 Mar 3.3 02:33:30 25° ENE 02:33:30 25° ENE 02:35:33 10° E visible
26 Mar 1.8 04:46:28 13° WNW 04:49:44 62° SSW 04:56:00 10° SE visible
27 Mar 2.2 02:56:14 45° ENE 02:56:14 45° ENE 02:59:39 10° E visible
27 Mar 2.3 05:09:43 10° W 05:13:30 46° SSW 05:19:58 10° SE visible
28 Mar 1.2 03:19:20 81° NNE 03:19:20 81° NNE 03:24:10 10° E visible
29 Mar 1.3 03:42:47 48° W 03:43:45 82° SSW 03:49:04 10° ESE visible
30 Mar 4.1 01:53:31 13° E 01:53:31 13° E 01:53:58 10° E visible
30 Mar 1.6 04:06:36 26° W 04:08:33 62° SSW 04:14:14 10° ESE visible
31 Mar 3.4 03:17:40 22° E 03:17:40 22° E 03:19:27 10° E visible
31 Mar 2.1 05:30:47 15° W 05:33:43 45° SSW 05:39:37 10° SE visible
01 Apr 2.4 03:42:10 40° E 03:42:10 40° E 03:45:21 10° E visible
01 Apr 2.8 05:55:40 10° W 05:59:17 32° SSW 06:05:05 10° SSE visible
02 Apr 1.3 04:07:02 74° SE 04:07:02 74° SE 04:11:38 10° ESE visible
03 Apr 1.4 04:32:16 50° WSW 04:32:57 60° SSW 04:38:11 10° SE visible
